Total_Precipitation_Accumulation
0.12 0.12 0.10 0.12 0.10 0.07 0.08 0.08 0.08 0.06 0.05 0.07 0.06 0.06 0.06 0.06 0.04 0.04 0.05 0.05 0.03 0.03 0.03 0.01 0.01 0.02 0.00 0.01 0.00 0.00 0.00 0.01 0.00 0.00 0.00 0.00 0.00 0.00 0.00 0.00 0.00 0.00 0.00 0.00 0.00 0.00 0.00 0.00 0.00 0.00 0.00 0.00 0.00 0.00 0.00 0.00 0.00 0.00 0.00 0.00 0.00 0.00 0.00 0.00 0.00 0.00 0.00 0.00 0.00 0.00 0.00 0.00 0.00 0.00 0.00 0.00 0.00 0.00 0.00 0.01 0.03 0.01 0.14 0.12 0.16 0.18 0.13 0.15
0.13 0.10 0.11 0.10 0.10 0.09 0.09 0.08 0.08 0.07 0.05 0.04 0.06 0.04 0.06 0.05 0.06 0.03 0.05 0.04 0.03 0.02 0.02 0.04 0.01 0.00 0.01 0.00 0.00 0.00 0.00 0.00 0.00 0.00 0.00 0.00 0.00 0.00 0.00 0.00 0.00 0.00 0.00 0.00 0.00 0.00 0.00 0.00 0.00 0.00 0.00 0.00 0.00 0.00 0.00 0.00 0.00 0.00 0.00 0.00 0.00 0.00 0.00 0.00 0.00 0.00 0.00 0.00 0.00 0.00 0.00 0.00 0.00 0.00 0.00 0.03 0.01 0.00 0.01 0.03 0.05 0.10 0.15 0.12 0.26 0.14 0.15 0.16
0.12 0.11 0.11 0.10 0.08 0.09 0.09 0.07 0.07 0.06 0.07 0.06 0.06 0.07 0.06 0.05 0.05 0.06 0.03 0.04 0.03 0.02 0.02 0.02 0.02 0.01 0.00 0.00 0.00 0.00 0.00 0.00 0.00 0.00 0.00 0.00 0.00 0.00 0.00 0.00 0.00 0.00 0.00 0.00 0.00 0.00 0.00 0.00 0.00 0.00 0.00 0.00 0.00 0.00 0.00 0.00 0.00 0.00 0.00 0.00 0.00 0.00 0.00 0.00 0.00 0.00 0.00 0.00 0.00 0.00 0.00 0.00 0.00 0.00 0.00 0.00 0.02 0.02 0.04 0.12 0.08 0.12 0.38 0.24 0.26 0.27 0.27 0.22
0.10 0.10 0.11 0.10 0.08 0.08 0.08 0.07 0.08 0.07 0.07 0.08 0.06 0.06 0.06 0.06 0.05 0.06 0.06 0.05 0.03 0.03 0.04 0.03 0.01 0.01 0.01 0.00 0.00 0.00 0.00 0.00 0.00 0.00 0.00 0.00 0.00 0.00 0.00 0.00 0.00 0.00 0.00 0.00 0.00 0.00 0.00 0.00 0.00 0.00 0.00 0.00 0.00 0.00 0.00 0.00 0.00 0.00 0.00 0.00 0.00 0.00 0.00 0.00 0.00 0.00 0.00 0.00 0.00 0.00 0.00 0.00 0.00 0.00 0.00 0.01 0.05 0.03 0.09 0.08 0.16 0.15 0.36 0.30 0.26 0.28 0.43 0.80
0.10 0.11 0.11 0.08 0.08 0.07 0.08 0.09 0.08 0.07 0.07 0.07 0.06 0.06 0.09 0.06 0.05 0.05 0.07 0.05 0.04 0.05 0.04 0.02 0.01 0.01 0.00 0.00 0.00 0.00 0.00 0.00 0.00 0.00 0.00 0.00 0.00 0.00 0.00 0.00 0.00 0.00 0.00 0.00 0.00 0.00 0.00 0.00 0.00 0.00 0.00 0.00 0.00 0.00 0.00 0.00 0.00 0.00 0.00 0.00 0.00 0.00 0.00 0.00 0.00 0.00 0.00 0.00 0.00 0.00 0.00 0.00 0.00 0.00 0.00 0.01 0.03 0.19 0.07 0.03 0.05 0.19 0.21 0.27 0.27 0.44 0.49 1.04
0.09 0.09 0.10 0.08 0.07 0.07 0.11 0.07 0.08 0.07 0.08 0.07 0.06 0.06 0.06 0.07 0.06 0.07 0.05 0.06 0.05 0.04 0.03 0.03 0.02 0.01 0.00 0.00 0.00 0.00 0.00 0.00 0.00 0.00 0.00 0.00 0.00 0.00 0.00 0.00 0.00 0.00 0.00 0.00 0.00 0.00 0.00 0.00 0.00 0.00 0.00 0.00 0.00 0.00 0.00 0.00 0.00 0.00 0.00 0.00 0.00 0.00 0.00 0.00 0.00 0.00 0.00 0.00 0.00 0.00 0.00 0.00 0.00 0.00 0.00 0.00 0.00 0.03 0.02 0.03 0.06 0.12 0.26 0.33 0.21 0.29 0.71 1.33
0.10 0.09 0.08 0.09 0.07 0.09 0.10 0.10 0.07 0.12 0.08 0.07 0.07 0.05 0.05 0.06 0.05 0.04 0.07 0.06 0.05 0.05 0.02 0.03 0.02 0.01 0.00 0.00 0.00 0.00 0.00 0.00 0.00 0.00 0.00 0.00 0.00 0.00 0.00 0.00 0.00 0.00 0.00 0.00 0.00 0.00 0.00 0.00 0.00 0.00 0.00 0.00 0.00 0.00 0.00 0.00 0.00 0.00 0.00 0.00 0.00 0.00 0.00 0.00 0.00 0.00 0.00 0.00 0.00 0.00 0.00 0.00 0.00 0.00 0.00 0.00 0.00 0.00 0.02 0.19 0.01 0.33 0.84 0.68 0.65 0.89 0.91 1.14
0.10 0.07 0.08 0.08 0.11 0.12 0.07 0.08 0.09 0.06 0.09 0.07 0.07 0.07 0.05 0.06 0.06 0.05 0.04 0.06 0.07 0.03 0.03 0.03 0.01 0.00 0.00 0.00 0.00 0.00 0.00 0.00 0.00 0.00 0.00 0.00 0.00 0.00 0.00 0.00 0.00 0.00 0.00 0.00 0.00 0.00 0.00 0.00 0.00 0.00 0.00 0.00 0.00 0.00 0.00 0.00 0.00 0.00 0.00 0.00 0.00 0.00 0.00 0.00 0.00 0.00 0.00 0.00 0.00 0.00 0.00 0.00 0.00 0.00 0.00 0.00 0.00 0.00 0.01 0.02 0.03 0.29 1.32 0.95 0.75 0.98 1.64 2.25
0.09 0.09 0.09 0.09 0.09 0.06 0.05 0.06 0.06 0.07 0.06 0.06 0.06 0.04 0.07 0.07 0.07 0.05 0.06 0.07 0.05 0.05 0.03 0.02 0.01 0.00 0.00 0.02 0.00 0.01 0.00 0.00 0.00 0.00 0.00 0.00 0.00 0.00 0.00 0.00 0.00 0.00 0.00 0.00 0.00 0.00 0.00 0.00 0.00 0.00 0.00 0.00 0.00 0.00 0.00 0.00 0.00 0.00 0.00 0.00 0.00 0.00 0.00 0.00 0.00 0.00 0.00 0.00 0.00 0.00 0.00 0.00 0.00 0.00 0.00 0.02 0.01 0.01 0.01 0.07 0.08 0.45 1.03 1.03 0.70 0.83 1.12 1.22
0.10 0.08 0.08 0.08 0.06 0.05 0.05 0.08 0.06 0.07 0.06 0.08 0.06 0.06 0.08 0.09 0.06 0.10 0.05 0.04 0.05 0.06 0.03 0.03 0.01 0.01 0.01 0.02 0.01 0.00 0.00 0.00 0.00 0.00 0.00 0.00 0.00 0.00 0.00 0.00 0.00 0.00 0.00 0.00 0.00 0.00 0.00 0.00 0.00 0.00 0.00 0.00 0.00 0.00 0.00 0.00 0.00 0.00 0.00 0.00 0.00 0.00 0.00 0.00 0.00 0.00 0.00 0.00 0.00 0.00 0.00 0.00 0.00 0.00 0.04 0.09 0.02 0.02 0.03 0.20 0.33 0.60 0.89 0.89 0.72 0.92 1.71 0.70
0.09 0.11 0.06 0.07 0.06 0.07 0.06 0.07 0.06 0.06 0.17 0.06 0.08 0.09 0.06 0.06 0.07 0.05 0.06 0.04 0.06 0.05 0.04 0.03 0.04 0.01 0.05 0.01 0.01 0.00 0.00 0.00 0.00 0.00 0.00 0.00 0.00 0.00 0.00 0.00 0.00 0.00 0.00 0.00 0.00 0.00 0.00 0.00 0.00 0.00 0.00 0.00 0.00 0.00 0.00 0.00 0.00 0.00 0.00 0.00 0.00 0.00 0.00 0.00 0.00 0.00 0.00 0.00 0.00 0.00 0.00 0.00 0.00 0.00 0.05 0.04 0.29 0.09 0.11 0.26 0.52 0.72 0.85 1.25 0.68 1.24 1.26 1.46
0.12 0.11 0.09 0.05 0.11 0.13 0.05 0.10 0.08 0.12 0.06 0.10 0.07 0.05 0.06 0.04 0.05 0.04 0.03 0.05 0.04 0.04 0.02 0.04 0.04 0.09 0.02 0.04 0.04 0.00 0.00 0.00 0.00 0.00 0.00 0.00 0.00 0.00 0.00 0.00 0.00 0.00 0.00 0.00 0.00 0.00 0.00 0.00 0.00 0.00 0.00 0.00 0.00 0.00 0.00 0.00 0.00 0.00 0.00 0.00 0.00 0.00 0.00 0.00 0.00 0.00 0.00 0.00 0.00 0.00 0.00 0.00 0.00 0.01 0.05 0.21 0.26 0.47 0.42 0.53 0.64 0.90 1.41 1.12 1.39 1.77 1.85 2.44
0.08 0.07 0.09 0.17 0.11 0.11 0.09 0.08 0.08 0.10 0.07 0.09 0.10 0.06 0.05 0.04 0.03 0.05 0.04 0.08 0.07 0.04 0.03 0.05 0.02 0.07 0.10 0.08 0.00 0.00 0.00 0.00 0.00 0.00 0.00 0.00 0.00 0.00 0.00 0.00 0.00 0.00 0.00 0.00 0.00 0.00 0.00 0.00 0.00 0.00 0.00 0.00 0.00 0.00 0.00 0.00 0.00 0.00 0.00 0.00 0.00 0.00 0.00 0.00 0.00 0.00 0.00 0.00 0.00 0.00 0.00 0.00 0.00 0.03 0.02 0.04 0.25 0.22 0.57 0.92 1.26 1.71 1.51 2.65 2.17 1.37 1.55 1.72
0.08 0.08 0.09 0.09 0.09 0.06 0.09 0.08 0.07 0.10 0.09 0.05 0.10 0.06 0.04 0.05 0.04 0.09 0.09 0.05 0.06 0.07 0.07 0.05 0.08 0.08 0.28 0.02 0.00 0.00 0.00 0.00 0.00 0.00 0.00 0.00 0.00 0.00 0.00 0.00 0.00 0.00 0.00 0.00 0.00 0.00 0.00 0.00 0.00 0.00 0.00 0.00 0.00 0.00 0.00 0.00 0.00 0.00 0.00 0.00 0.00 0.00 0.00 0.00 0.00 0.00 0.00 0.00 0.00 0.00 0.00 0.01 0.02 0.02 0.03 0.15 0.25 0.77 1.25 1.43 1.69 2.24 1.32 1.51 1.70 1.54 1.43 2.09
0.08 0.14 0.17 0.19 0.13 0.13 0.12 0.10 0.08 0.06 0.11 0.11 0.07 0.04 0.04 0.14 0.06 0.04 0.16 0.19 0.09 0.04 0.05 0.07 0.06 0.09 0.16 0.00 0.00 0.00 0.00 0.00 0.00 0.00 0.00 0.00 0.00 0.00 0.00 0.00 0.00 0.00 0.00 0.00 0.00 0.00 0.00 0.00 0.00 0.00 0.00 0.00 0.00 0.00 0.00 0.00 0.00 0.00 0.00 0.00 0.00 0.00 0.00 0.00 0.00 0.00 0.00 0.00 0.00 0.00 0.00 0.06 0.02 0.02 0.07 0.36 0.82 1.27 0.85 1.05 1.32 1.53 1.14 1.16 1.47 1.23 1.24 0.97
0.13 0.13 0.13 0.10 0.09 0.20 0.08 0.08 0.13 0.06 0.13 0.11 0.11 0.06 0.05 0.04 0.05 0.05 0.06 0.15 0.06 0.14 0.07 0.09 0.09 0.06 0.02 0.02 0.00 0.00 0.00 0.00 0.00 0.00 0.00 0.00 0.00 0.00 0.00 0.00 0.00 0.00 0.00 0.00 0.00 0.00 0.00 0.00 0.00 0.00 0.00 0.00 0.00 0.00 0.00 0.00 0.00 0.00 0.00 0.00 0.00 0.00 0.00 0.00 0.00 0.00 0.00 0.00 0.00 0.00 0.00 0.04 0.01 0.03 0.14 0.88 1.42 0.86 0.50 1.26 0.90 1.49 1.44 1.63 1.24 2.33 1.24 1.30
0.17 0.11 0.15 0.09 0.09 0.06 0.07 0.19 0.11 0.12 0.09 0.07 0.06 0.06 0.05 0.06 0.06 0.12 0.07 0.16 0.11 0.07 0.14 0.07 0.03 0.05 0.14 0.00 0.00 0.00 0.00 0.00 0.00 0.00 0.00 0.00 0.00 0.00 0.00 0.00 0.00 0.00 0.00 0.00 0.00 0.00 0.00 0.00 0.00 0.00 0.00 0.00 0.00 0.00 0.01 0.01 0.01 0.00 0.00 0.00 0.00 0.00 0.00 0.01 0.00 0.00 0.00 0.00 0.00 0.00 0.00 0.04 0.03 0.00 0.29 1.46 1.11 0.92 0.52 0.54 1.18 0.70 0.42 0.30 0.71 0.51 0.71 0.49
0.28 0.11 0.16 0.20 0.06 0.07 0.07 0.09 0.08 0.13 0.12 0.11 0.09 0.07 0.08 0.11 0.06 0.12 0.11 0.15 0.16 0.09 0.10 0.04 0.03 0.12 0.01 0.00 0.00 0.00 0.00 0.00 0.00 0.00 0.00 0.00 0.00 0.00 0.00 0.00 0.00 0.00 0.00 0.00 0.00 0.00 0.00 0.00 0.00 0.00 0.00 0.00 0.00 0.01 0.01 0.08 0.06 0.05 0.01 0.01 0.01 0.00 0.00 0.00 0.00 0.01 0.00 0.00 0.00 0.00 0.00 0.01 0.06 0.01 0.03 0.04 0.65 0.63 0.81 0.78 1.41 1.32 0.41 0.41 0.53 0.48 0.38 0.53
0.12 0.16 0.10 0.23 0.19 0.13 0.10 0.20 0.11 0.07 0.09 0.09 0.12 0.09 0.07 0.10 0.17 0.19 0.17 0.17 0.21 0.40 0.19 0.19 0.13 0.04 0.08 0.00 0.00 0.00 0.00 0.00 0.00 0.00 0.00 0.00 0.00 0.00 0.00 0.00 0.00 0.00 0.00 0.00 0.00 0.00 0.00 0.00 0.00 0.00 0.01 0.01 0.03 0.00 0.00 0.00 0.00 0.00 0.00 0.00 0.00 0.01 0.03 0.01 0.01 0.00 0.00 0.00 0.00 0.00 0.00 0.02 0.00 0.02 0.04 0.37 0.46 0.42 0.97 1.12 1.01 1.19 1.36 0.78 0.52 0.55 0.55 0.39
0.15 0.17 0.15 0.15 0.19 0.13 0.13 0.12 0.11 0.19 0.31 0.10 0.13 0.13 0.16 0.15 0.31 0.20 0.22 0.29 0.17 0.04 0.00 0.01 0.00 0.00 0.00 0.00 0.00 0.00 0.00 0.00 0.00 0.00 0.00 0.00 0.00 0.00 0.00 0.00 0.00 0.00 0.00 0.00 0.00 0.00 0.00 0.00 0.00 0.03 0.02 0.01 0.02 0.00 0.00 0.00 0.00 0.00 0.00 0.00 0.01 0.00 0.00 0.00 0.00 0.00 0.00 0.00 0.00 0.00 0.01 0.01 0.01 0.01 0.01 0.07 0.09 0.77 0.97 1.34 1.72 1.59 0.76 0.49 0.96 0.40 0.73 0.67
0.19 0.16 0.17 0.13 0.20 0.21 0.18 0.13 0.09 0.09 0.25 0.30 0.16 0.24 0.21 0.13 0.10 0.15 0.09 0.12 0.07 0.02 0.00 0.02 0.01 0.00 0.00 0.00 0.00 0.00 0.00 0.00 0.00 0.00 0.00 0.00 0.00 0.00 0.00 0.00 0.00 0.00 0.00 0.00 0.00 0.01 0.00 0.01 0.02 0.02 0.00 0.00 0.00 0.00 0.00 0.00 0.00 0.00 0.00 0.00 0.00 0.00 0.01 0.00 0.01 0.00 0.00 0.00 0.00 0.00 0.02 0.01 0.03 0.03 0.03 0.05 0.05 0.14 0.29 0.50 0.30 0.74 0.43 0.84 0.79 0.61 0.37 0.97
0.15 0.17 0.20 0.19 0.19 0.24 0.13 0.12 0.16 0.15 0.18 0.28 0.31 0.34 0.12 0.11 0.10 0.07 0.15 0.12 0.02 0.01 0.01 0.00 0.00 0.01 0.00 0.00 0.00 0.00 0.00 0.00 0.00 0.00 0.00 0.00 0.00 0.00 0.00 0.00 0.00 0.02 0.00 0.00 0.00 0.00 0.01 0.03 0.00 0.00 0.00 0.00 0.00 0.00 0.00 0.00 0.00 0.00 0.01 0.00 0.00 0.03 0.02 0.00 0.00 0.00 0.00 0.00 0.00 0.00 0.01 0.03 0.06 0.04 0.06 0.04 0.04 0.09 0.06 0.05 0.10 0.21 0.37 0.41 0.34 0.41 0.95 1.20
0.27 0.16 0.18 0.22 0.28 0.33 0.29 0.12 0.14 0.36 0.28 0.39 0.56 0.13 0.23 0.20 0.12 0.21 0.09 0.18 0.03 0.01 0.02 0.00 0.00 0.00 0.00 0.00 0.00 0.00 0.00 0.00 0.00 0.00 0.00 0.00 0.00 0.00 0.00 0.00 0.00 0.00 0.00 0.00 0.02 0.01 0.14 0.01 0.00 0.00 0.00 0.00 0.00 0.00 0.00 0.00 0.00 0.00 0.01 0.01 0.05 0.07 0.02 0.11 0.09 0.00 0.03 0.00 0.00 0.00 0.05 0.03 0.05 0.05 0.06 0.13 0.08 0.11 0.11 0.12 0.24 0.36 0.54 0.25 0.48 0.49 0.64 0.63
0.16 0.25 0.23 0.28 0.34 0.38 0.22 0.14 0.18 0.30 0.57 0.27 0.40 0.27 0.27 0.31 0.12 0.11 0.36 0.23 0.04 0.00 0.00 0.00 0.00 0.00 0.00 0.00 0.00 0.00 0.00 0.00 0.00 0.00 0.00 0.00 0.00 0.00 0.00 0.00 0.00 0.00 0.01 0.01 0.00 0.01 0.01 0.00 0.00 0.00 0.00 0.00 0.00 0.00 0.00 0.00 0.02 0.02 0.00 0.00 0.02 0.03 0.08 0.00 0.09 0.01 0.00 0.01 0.00 0.01 0.03 0.09 0.08 0.15 0.16 0.17 0.40 0.77 1.05 0.89 0.47 0.36 0.38 0.99 1.23 1.19 0.62 0.71
0.28 0.32 0.38 0.21 0.49 0.36 0.30 0.29 0.20 0.25 0.28 0.66 0.40 0.64 0.29 0.22 0.12 0.21 0.36 0.22 0.09 0.01 0.00 0.00 0.00 0.00 0.00 0.00 0.00 0.00 0.00 0.00 0.00 0.01 0.11 0.00 0.00 0.00 0.00 0.00 0.01 0.02 0.01 0.01 0.00 0.01 0.07 0.01 0.00 0.00 0.00 0.00 0.00 0.01 0.02 0.00 0.00 0.06 0.10 0.02 0.00 0.00 0.00 0.00 0.00 0.01 0.01 0.14 0.03 0.01 0.11 0.26 0.27 0.15 0.14 0.16 0.29 1.06 1.77 1.27 0.35 0.72 0.87 1.19 1.50 1.07 1.77 1.69
0.25 0.29 0.26 0.25 0.41 0.34 0.47 0.30 0.43 0.40 0.43 0.69 0.63 0.75 0.32 0.17 0.47 0.32 0.17 0.41 0.16 0.02 0.04 0.01 0.00 0.01 0.00 0.00 0.00 0.00 0.00 0.01 0.00 0.02 0.01 0.00 0.01 0.00 0.01 0.02 0.01 0.03 0.01 0.01 0.01 0.03 0.00 0.00 0.00 0.00 0.00 0.00 0.00 0.03 0.00 0.00 0.00 0.01 0.13 0.00 0.01 0.01 0.00 0.01 0.00 0.01 0.03 0.23 0.33 0.01 0.11 0.42 0.25 0.43 0.43 0.38 0.29 0.33 0.44 0.70 0.31 0.23 0.76 0.98 0.97 0.82 1.09 1.09
0.44 0.40 0.26 0.32 0.33 0.43 0.34 0.42 0.25 0.77 0.46 0.67 0.42 0.47 0.24 0.33 0.35 0.25 0.40 0.27 0.24 0.06 0.03 0.03 0.00 0.02 0.00 0.02 0.00 0.00 0.08 0.14 0.00 0.01 0.00 0.00 0.01 0.00 0.05 0.04 0.02 0.01 0.02 0.12 0.01 0.01 0.00 0.00 0.00 0.00 0.01 0.01 0.01 0.08 0.00 0.00 0.00 0.18 0.01 0.01 0.00 0.00 0.00 0.02 0.01 0.01 0.09 0.01 0.04 0.00 0.04 0.26 0.26 0.42 0.37 0.36 0.23 0.47 0.44 0.29 0.65 1.01 0.73 1.35 1.21 0.89 0.87 0.55
0.31 0.26 0.23 0.20 0.34 0.39 0.58 0.58 0.60 0.65 0.53 0.49 0.73 0.40 0.53 0.20 0.31 0.47 0.26 0.34 0.10 0.02 0.15 0.12 0.00 0.03 0.03 0.01 0.00 0.01 0.03 0.01 0.15 0.31 0.03 0.12 0.00 0.02 0.00 0.03 0.03 0.04 0.12 0.02 0.12 0.05 0.00 0.01 0.02 0.02 0.01 0.05 0.02 0.00 0.02 0.01 0.00 0.01 0.00 0.00 0.00 0.00 0.02 0.01 0.02 0.02 0.05 0.03 0.30 0.08 0.15 0.10 0.24 0.28 0.73 0.78 0.52 0.92 0.70 0.45 0.67 0.49 0.51 1.16 0.80 0.65 0.73 0.57
0.28 0.18 0.20 0.33 0.23 0.40 0.35 0.60 0.61 0.87 0.48 0.48 0.29 0.45 0.33 0.62 0.53 0.44 0.47 0.23 0.23 0.05 0.00 0.19 0.01 0.01 0.02 0.01 0.00 0.01 0.01 0.01 0.11 0.29 0.03 0.11 0.01 0.15 0.02 0.02 0.02 0.05 0.03 0.02 0.16 0.01 0.02 0.00 0.00 0.00 0.00 0.02 0.01 0.00 0.01 0.01 0.04 0.03 0.00 0.00 0.01 0.00 0.00 0.02 0.04 0.07 0.13 0.05 0.10 0.07 0.13 0.08 0.24 0.36 0.57 1.28 0.65 0.70 0.92 0.90 0.29 0.25 0.26 0.42 0.48 0.55 0.48 0.67
0.19 0.16 0.17 0.18 0.16 0.26 0.61 0.90 0.51 0.31 0.28 0.43 0.45 0.48 0.42 0.65 0.96 0.43 0.50 0.20 0.22 0.46 0.02 0.06 0.02 0.07 0.01 0.14 0.03 0.09 0.05 0.08 0.05 0.12 0.13 0.11 0.04 0.08 0.00 0.04 0.09 0.19 0.08 0.02 0.01 0.02 0.08 0.00 0.00 0.01 0.02 0.00 0.00 0.00 0.00 0.01 0.00 0.00 0.00 0.01 0.01 0.02 0.03 0.03 0.02 0.10 0.13 0.04 0.22 0.07 0.06 0.02 0.29 0.23 0.19 0.57 0.26 0.17 0.11 0.31 0.29 0.34 1.07 0.81 0.77 0.66 0.42 0.48
0.08 0.15 0.09 0.09 0.55 0.61 0.36 0.41 0.50 0.20 0.32 0.20 0.29 0.42 0.79 0.75 0.71 0.28 0.26 0.21 0.14 0.41 0.05 0.03 0.11 0.03 0.23 0.23 0.22 0.14 0.08 0.05 0.12 0.06 0.27 0.31 0.19 0.06 0.18 0.15 0.13 0.12 0.16 0.16 0.12 0.08 0.05 0.06 0.03 0.01 0.01 0.01 0.00 0.02 0.01 0.00 0.00 0.01 0.02 0.03 0.02 0.06 0.05 0.03 0.12 0.08 0.24 0.20 0.11 0.04 0.04 0.03 0.18 0.26 0.16 0.11 0.09 0.06 0.09 0.16 0.16 0.30 0.28 0.49 0.78 0.34 0.36 0.53
0.34 0.11 0.15 0.21 0.31 0.42 0.24 0.47 0.27 0.29 0.49 0.19 0.32 0.53 0.75 0.83 0.41 0.61 0.27 0.60 0.59 0.68 0.48 0.26 0.15 0.19 0.18 0.33 0.20 0.11 0.13 0.15 0.16 0.08 0.19 0.20 0.14 0.19 0.24 0.16 0.22 0.27 0.24 0.20 0.29 0.04 0.07 0.08 0.02 0.01 0.01 0.01 0.03 0.02 0.11 0.01 0.02 0.04 0.03 0.03 0.29 0.47 0.20 0.38 0.23 0.33 0.13 0.08 0.06 0.03 0.04 0.08 0.06 0.31 0.14 0.23 0.22 0.12 0.08 0.12 0.20 0.27 0.38 0.33 0.64 0.40 0.54 0.54
0.06 0.05 0.06 0.17 0.08 0.14 0.25 0.18 0.16 0.24 0.42 0.29 0.46 1.28 0.90 0.77 0.40 0.27 0.43 0.35 1.50 0.73 0.77 0.35 0.62 0.25 0.20 0.13 0.10 0.06 0.04 0.22 0.11 0.12 0.14 0.28 0.21 0.19 0.20 0.18 0.10 0.12 0.52 0.14 0.30 0.20 0.12 0.05 0.00 0.04 0.02 0.03 0.01 0.05 0.04 0.13 0.03 0.04 0.04 0.16 0.15 0.36 0.25 0.07 0.27 0.12 0.15 0.06 0.04 0.08 0.07 0.16 0.30 0.45 0.10 0.30 0.20 0.12 0.12 0.14 0.49 0.81 0.67 0.28 0.55 0.56 0.84 1.51
0.02 0.02 0.15 0.03 0.03 0.05 0.11 0.18 0.34 0.26 0.32 0.27 0.46 0.95 1.61 0.60 0.21 0.27 0.43 0.60 1.29 0.55 0.46 0.65 0.35 0.46 0.11 0.19 0.23 0.17 0.23 0.11 0.08 0.13 0.09 0.22 0.22 0.21 0.23 0.19 0.04 0.18 0.22 0.22 0.47 0.32 0.35 0.31 0.08 0.07 0.26 0.02 0.02 0.00 0.02 0.09 0.02 0.02 0.01 0.04 0.32 0.28 0.25 0.19 0.12 0.21 0.13 0.28 0.06 0.06 0.05 0.08 0.16 1.19 0.33 0.23 0.12 0.08 0.08 0.18 0.22 0.26 0.51 0.85 0.64 0.67 1.15 2.95
0.02 0.02 0.03 0.06 0.04 0.01 0.09 0.08 0.22 0.16 0.40 0.32 0.67 0.88 0.63 0.24 0.33 0.46 0.90 0.69 0.63 0.72 0.58 0.45 0.40 0.38 0.35 0.21 0.22 0.14 0.06 0.51 0.05 0.11 0.12 0.22 0.30 0.20 0.19 0.18 0.04 0.05 0.18 0.32 0.17 0.17 0.12 0.29 0.21 0.01 0.03 0.02 0.02 0.01 0.00 0.00 0.04 0.01 0.03 0.04 0.11 0.13 0.07 0.38 0.45 0.19 0.35 0.33 0.12 0.06 0.15 0.56 0.98 1.21 0.50 0.18 0.10 0.09 0.10 0.27 0.31 0.44 0.40 0.50 1.37 2.02 2.29 2.07
0.02 0.05 0.04 0.10 0.09 0.05 0.08 0.07 0.39 0.22 0.38 0.56 0.79 0.67 0.59 0.32 0.67 0.93 0.94 0.62 0.70 0.84 0.51 0.45 0.46 0.27 0.20 0.28 0.15 0.11 0.12 0.23 0.27 0.10 0.18 0.12 0.23 0.26 0.18 0.11 0.17 0.03 0.17 0.28 0.12 0.32 0.14 0.42 0.02 0.06 0.01 0.03 0.00 0.00 0.00 0.00 0.31 0.19 0.03 0.10 0.07 0.05 0.08 0.14 0.12 0.11 0.10 0.15 0.16 0.03 0.19 0.42 0.41 1.06 0.56 0.41 0.28 0.23 0.11 0.24 0.14 0.44 0.79 0.92 1.66 1.68 1.47 1.36
0.11 0.05 0.14 0.06 0.07 0.07 0.24 0.19 0.21 0.33 0.39 0.46 0.88 0.53 0.29 0.40 0.39 0.49 0.65 0.80 1.03 0.75 1.06 0.95 0.37 0.37 0.22 0.28 0.31 0.19 0.23 0.05 0.39 0.10 0.33 0.08 0.38 0.19 0.14 0.09 0.02 0.07 0.03 0.06 0.34 0.12 0.34 0.69 0.04 0.02 0.09 0.02 0.01 0.00 0.00 0.00 0.01 0.11 0.15 0.10 0.12 0.13 0.22 0.24 0.54 0.37 0.16 0.34 0.13 0.05 0.14 0.45 0.13 0.91 0.84 0.57 0.66 0.36 0.33 0.30 0.25 0.36 0.69 0.94 1.35 0.90 0.69 1.38
0.14 0.09 0.28 0.11 0.05 0.11 0.22 0.31 0.45 0.49 0.52 0.66 0.63 0.43 0.37 0.51 0.51 0.54 0.51 0.62 0.88 1.02 1.19 1.00 0.68 0.30 0.54 0.34 0.30 0.09 0.29 0.16 0.49 0.21 0.28 0.31 0.67 0.08 0.11 0.14 0.02 0.05 0.06 0.09 0.19 0.45 0.14 0.43 0.15 0.01 0.01 0.03 0.00 0.02 0.06 0.00 0.00 0.12 0.17 0.10 0.17 0.45 0.36 0.18 0.23 0.44 0.36 0.31 0.31 0.18 0.16 0.15 0.22 0.80 0.55 0.61 0.37 0.47 0.46 0.27 0.23 0.35 0.71 1.06 1.23 1.14 0.90 1.14
0.33 0.43 0.56 0.07 0.20 0.13 0.26 0.49 0.48 0.61 0.81 0.74 0.49 0.54 0.43 0.51 0.43 0.54 0.61 0.61 0.61 0.78 1.07 0.67 1.00 0.64 0.52 0.35 0.23 0.14 0.17 0.46 0.24 0.43 0.27 0.42 0.50 0.19 0.17 0.05 0.16 0.03 0.04 0.11 0.21 0.22 0.18 0.41 0.30 0.05 0.04 0.14 0.04 0.06 0.40 0.13 0.01 0.04 0.01 0.08 0.17 0.17 0.37 0.51 0.44 0.63 0.61 0.55 0.34 0.40 0.25 0.43 0.32 0.58 0.24 0.36 0.24 0.38 0.40 0.45 0.39 0.50 0.44 0.51 0.44 0.48 0.53 0.63
0.72 0.58 0.99 0.13 0.15 0.23 0.53 0.42 0.65 0.84 0.95 0.61 0.34 0.50 0.29 0.48 0.34 0.34 0.55 0.64 1.20 0.84 1.01 0.92 0.58 0.87 0.43 0.52 0.22 0.32 0.25 0.20 0.39 0.68 0.20 0.68 0.32 0.08 0.08 0.02 0.17 0.12 0.13 0.13 0.24 0.19 0.48 0.26 0.66 0.13 0.07 0.05 0.41 0.04 0.17 0.12 0.26 0.15 0.11 0.10 0.25 0.23 0.32 0.20 0.62 0.31 0.46 0.49 0.45 0.38 0.39 0.65 0.70 0.28 0.32 0.28 0.57 0.47 0.35 0.33 0.44 0.56 0.97 0.74 1.19 1.14 0.88 0.47
0.39 1.00 1.01 0.34 0.24 0.40 0.66 0.84 0.92 0.93 0.68 0.34 0.38 0.43 0.31 0.51 0.57 0.60 0.41 0.56 0.90 0.53 0.62 0.73 0.74 0.66 0.35 0.38 0.38 0.26 0.23 0.37 0.37 0.46 0.18 0.30 0.27 0.60 0.17 0.11 0.11 0.42 0.36 0.45 0.33 0.46 0.51 0.44 0.51 0.37 0.23 0.21 0.23 0.03 0.09 0.13 0.23 0.32 0.19 0.27 0.33 0.53 0.74 0.77 0.57 0.15 0.23 0.40 0.43 0.32 0.37 0.60 0.65 0.21 0.63 0.66 0.40 0.86 0.66 0.70 0.72 0.82 0.68 0.90 1.01 0.74 0.72 1.05
0.61 1.04 1.37 0.43 0.37 0.49 0.82 1.16 0.83 0.77 0.78 0.61 0.54 0.49 0.59 0.47 0.65 0.50 0.49 0.55 0.35 0.58 0.37 0.44 0.26 0.32 0.27 0.33 0.26 0.17 0.45 0.25 0.21 0.33 0.28 0.34 0.41 0.18 0.31 0.14 0.24 0.29 0.53 0.77 0.56 0.33 0.36 0.78 0.55 0.48 0.23 0.74 0.18 0.09 0.08 0.16 0.18 0.26 0.10 0.46 0.48 0.28 0.27 0.59 0.60 0.42 0.22 0.25 0.16 0.51 0.40 0.80 0.68 0.32 1.28 1.20 0.59 0.55 0.67 0.60 0.57 0.72 0.78 0.82 0.90 1.00 0.53 0.65
0.85 1.99 1.28 0.49 0.32 0.53 1.05 0.98 0.67 0.84 0.74 0.59 0.40 0.37 0.40 0.59 0.54 0.46 0.40 0.53 0.50 0.33 0.53 0.51 0.41 0.37 0.29 0.54 0.20 0.28 0.25 0.41 0.17 0.56 0.19 0.30 0.27 0.25 0.11 0.49 0.27 0.44 0.54 1.10 0.37 0.67 0.55 0.57 0.65 0.39 0.15 0.16 0.20 0.16 0.11 0.23 0.60 0.26 0.11 0.27 0.36 0.43 0.34 0.36 0.53 0.57 0.55 0.49 0.39 0.45 0.28 0.93 0.44 0.56 0.82 0.94 1.11 1.75 1.24 0.71 0.62 0.51 0.35 0.80 1.19 0.93 0.79 0.33
0.95 2.21 1.35 0.55 0.35 0.76 1.59 1.18 1.12 0.89 0.94 0.70 0.65 0.59 0.45 0.77 0.66 0.53 0.40 0.45 0.58 0.56 0.82 0.35 0.43 0.55 0.46 0.17 0.19 0.19 0.32 0.51 0.20 0.10 0.23 0.18 0.26 0.06 0.27 0.52 0.36 0.64 0.66 1.07 0.81 1.18 0.89 0.75 0.52 1.03 0.68 1.03 0.54 0.44 0.60 0.32 0.24 0.31 0.29 0.27 0.31 0.26 0.19 0.28 0.41 0.38 0.48 0.31 0.46 0.71 0.80 1.00 0.80 0.48 0.75 0.61 1.08 1.77 1.52 1.26 1.15 1.10 1.33 1.53 1.17 0.74 0.62 0.96
1.49 1.26 0.81 0.91 0.42 0.96 1.78 1.64 1.48 1.12 0.90 0.87 0.82 0.79 0.82 0.77 0.85 0.67 0.50 0.46 0.32 0.45 0.44 0.52 0.29 0.24 0.21 0.10 0.23 0.21 0.32 0.50 0.43 0.36 0.13 0.19 0.50 0.03 0.24 0.28 0.33 0.62 0.40 0.46 0.69 0.94 0.77 1.08 0.76 1.23 1.41 1.45 1.35 1.32 1.19 0.93 0.49 0.29 0.19 0.28 0.21 0.17 0.44 0.55 0.55 0.37 0.53 0.38 0.42 0.64 0.74 0.74 0.73 0.43 0.51 0.41 0.51 0.70 0.91 1.25 0.84 0.63 0.78 0.88 0.74 0.80 0.67 0.88
1.56 0.91 0.56 0.60 1.08 1.53 1.21 1.14 1.44 1.44 1.12 0.88 0.81 0.96 1.18 1.24 0.85 0.77 0.36 0.30 0.32 0.28 0.65 0.32 0.20 0.16 0.16 0.29 0.09 0.21 0.34 0.21 0.37 0.41 0.27 0.29 0.33 0.14 0.18 0.26 0.36 0.38 0.26 0.37 0.96 0.92 0.94 0.76 0.94 0.86 1.01 1.38 1.04 0.76 0.97 0.71 0.64 0.49 0.50 0.37 0.24 0.19 0.18 0.48 0.58 0.83 0.63 0.44 0.46 0.53 0.68 0.82 0.75 0.73 0.51 0.54 0.61 0.93 0.67 0.59 0.51 0.73 0.63 0.56 0.55 0.62 0.64 0.90
1.23 1.06 0.33 0.44 0.45 0.78 1.21 1.08 1.34 1.50 1.60 1.31 1.42 0.72 0.97 0.87 0.55 0.74 0.40 0.64 0.30 0.63 0.50 0.43 0.24 0.26 0.28 0.58 0.20 0.30 0.28 0.56 0.36 0.15 0.29 0.44 0.21 0.13 0.39 0.31 0.62 0.36 0.48 0.57 0.85 1.18 1.11 0.79 0.64 0.84 0.68 0.76 0.61 0.72 0.58 0.60 0.74 0.54 0.44 0.35 0.23 0.25 0.33 0.49 0.46 0.73 0.60 0.83 0.66 0.73 0.70 0.63 0.79 0.58 0.53 0.57 0.65 0.73 0.67 0.72 0.51 0.52 0.43 0.47 0.43 0.40 0.38 0.35
1.30 0.68 0.33 0.42 1.00 0.62 1.03 1.45 1.19 1.66 1.41 1.75 1.18 0.77 0.73 0.75 0.52 0.80 0.47 0.42 0.61 0.23 0.72 0.62 0.69 0.57 0.33 0.54 0.27 0.23 0.23 0.38 0.29 0.20 0.45 0.22 0.06 0.17 0.35 0.32 0.54 0.50 0.48 0.51 0.45 0.85 1.21 0.92 0.57 0.90 1.24 0.54 0.54 0.34 0.41 0.66 0.50 0.59 0.59 0.50 0.58 0.49 0.42 0.41 0.45 0.37 0.52 0.65 1.16 0.74 0.80 0.66 0.68 0.62 0.59 0.63 0.63 0.76 0.56 0.56 0.60 0.45 0.43 0.41 0.42 0.40 0.39 0.39
1.29 0.43 0.64 0.21 0.56 0.54 0.97 0.94 1.28 1.40 1.68 1.57 1.34 0.79 0.69 0.53 0.47 0.54 0.56 0.51 0.38 0.53 0.28 0.43 1.07 0.85 0.73 0.27 0.41 0.46 0.50 0.78 0.33 0.20 0.42 0.56 0.52 0.46 0.53 0.44 0.54 0.54 0.74 0.65 0.76 0.74 0.89 0.82 0.87 0.85 1.02 1.19 0.82 0.36 0.32 0.55 0.70 0.36 0.33 0.38 0.36 0.49 0.59 0.51 0.33 0.24 0.37 0.43 0.43 0.47 0.41 0.49 0.67 0.65 0.50 0.70 0.61 0.58 0.51 0.35 0.37 0.41 0.32 0.23 0.40 0.29 0.31 0.26
1.27 1.35 0.51 0.15 0.35 0.15 0.29 0.59 0.87 1.27 1.72 1.41 1.30 0.81 0.68 0.46 0.50 0.26 0.27 0.53 0.60 0.43 0.29 0.59 0.90 0.87 0.43 0.44 0.33 0.44 0.72 0.62 0.29 0.32 0.40 0.51 0.54 0.67 1.19 0.92 1.49 0.82 0.65 0.72 0.68 0.78 0.71 0.82 0.65 1.17 1.55 0.97 0.76 0.40 0.43 0.61 0.57 0.62 0.34 0.34 0.32 0.32 0.35 0.45 0.47 0.51 0.43 0.50 0.42 0.53 0.35 0.56 0.68 0.51 0.93 1.00 0.66 1.28 1.03 0.70 0.61 0.64 0.61 0.46 0.45 0.40 0.25 0.22
0.99 0.82 0.76 0.85 0.51 0.29 0.35 0.47 0.63 0.93 1.56 1.53 1.47 0.91 0.87 0.36 0.47 0.37 0.29 0.25 0.36 0.45 0.36 0.73 1.05 0.53 0.64 0.87 1.12 0.70 0.52 0.38 0.25 0.40 0.45 0.45 0.57 0.61 0.80 1.08 0.66 1.71 1.47 1.21 0.97 1.87 0.88 1.25 0.61 1.18 1.47 1.17 0.62 0.45 0.45 0.67 0.55 0.51 0.52 0.50 0.40 0.39 0.54 0.57 0.68 0.62 0.73 1.11 0.89 1.03 0.61 0.66 1.07 0.65 0.59 1.12 0.68 0.42 0.61 0.54 0.37 0.40 0.84 0.76 0.61 0.49 0.62 0.58
0.93 0.48 0.54 0.81 0.82 0.24 0.47 0.33 0.50 0.76 0.98 1.29 1.57 1.24 1.19 0.87 0.81 0.42 0.91 0.47 0.48 0.27 0.50 0.84 1.70 1.31 1.36 1.74 0.99 0.28 0.47 0.24 0.25 0.22 0.28 0.15 0.29 0.21 0.83 0.81 0.61 0.78 1.13 0.90 1.18 1.24 1.00 0.64 0.75 1.22 1.63 1.25 1.20 0.64 0.69 0.59 0.67 1.14 0.96 0.62 0.53 0.60 0.45 0.43 0.43 0.46 0.64 0.87 1.25 1.41 1.04 0.99 0.94 0.83 0.71 1.00 0.66 0.52 0.47 0.53 1.08 0.89 0.64 0.62 0.67 0.36 0.16 0.14